Location: ?????
(31.8092°N, 35.2590°E)
Time: 21:13:24
(UTC+00:00)

N. Korean satellite - Pass Details

Date: 01 October 2021
Orbit: 450 x 495 km, 97.3° (Epoch: 25 October)

Event Time Altitude Azimuth Distance (km) Brightness Sun altitude
Rises 02:19:58 0° 23° (NNE) 2,553 10.6 -16.3°
Reaches altitude 10° 02:22:11 10° 33° (NNE) 1,675 9.8 -15.8°
Maximum altitude 02:25:27 32° 98° (E) 869 8.6 -15.1°
Drops below altitude 10° 02:28:42 10° 162° (SSE) 1,680 9.4 -14.4°
Sets 02:30:56 0° 173° (S) 2,561 10.3 -14.0°
